TimeCST,TemperatureF,Dew PointF,Humidity,Sea Level PressureIn,VisibilityMPH,Wind Direction,Wind SpeedMPH,Gust SpeedMPH,PrecipitationIn,Events,Conditions,WindDirDegrees,DateUTC
12:53 AM,57.9,57.0,97,30.06,9.0,ESE,5.8,-,N/A,,Clear,110,2013-11-21 06:53:00
1:53 AM,60.1,57.9,93,30.08,9.0,East,6.9,-,N/A,,Clear,80,2013-11-21 07:53:00
2:53 AM,59.0,57.0,93,30.08,10.0,East,5.8,-,N/A,,Clear,80,2013-11-21 08:53:00
3:53 AM,59.0,57.0,93,30.07,9.0,East,5.8,-,N/A,,Partly Cloudy,90,2013-11-21 09:53:00
4:53 AM,59.0,57.0,93,30.07,8.0,East,5.8,-,N/A,,Clear,90,2013-11-21 10:53:00
5:53 AM,59.0,57.9,96,30.09,8.0,ESE,5.8,-,N/A,,Mostly Cloudy,110,2013-11-21 11:53:00
6:33 AM,60.8,59.0,94,30.08,8.0,East,5.8,-,N/A,,Mostly Cloudy,100,2013-11-21 12:33:00
6:42 AM,60.8,59.0,94,30.08,7.0,East,8.1,-,N/A,,Mostly Cloudy,100,2013-11-21 12:42:00
6:53 AM,60.1,59.0,96,30.11,5.0,ESE,6.9,-,N/A,,Overcast,110,2013-11-21 12:53:00
7:08 AM,60.8,59.0,94,30.08,1.8,ESE,9.2,-,N/A,,Overcast,110,2013-11-21 13:08:00
7:20 AM,60.8,60.8,100,30.09,0.5,ESE,8.1,-,N/A,Fog,Fog,110,2013-11-21 13:20:00
7:32 AM,60.8,60.8,100,30.09,0.2,ESE,6.9,-,N/A,Fog,Fog,110,2013-11-21 13:32:00
7:53 AM,62.1,61.0,96,30.12,0.2,ESE,8.1,-,N/A,Fog,Fog,110,2013-11-21 13:53:00
8:18 AM,62.6,62.6,100,30.10,0.5,ESE,10.4,-,N/A,Fog,Fog,110,2013-11-21 14:18:00
8:48 AM,64.4,64.4,100,30.11,1.2,ESE,6.9,-,N/A,,Overcast,110,2013-11-21 14:48:00
8:53 AM,64.9,64.0,97,30.13,2.0,ESE,9.2,-,N/A,,Overcast,110,2013-11-21 14:53:00
9:04 AM,64.4,64.4,100,30.11,1.0,ESE,9.2,-,N/A,,Overcast,120,2013-11-21 15:04:00
9:30 AM,66.2,64.4,94,30.11,3.0,ESE,11.5,-,N/A,,Overcast,110,2013-11-21 15:30:00
9:53 AM,66.9,64.9,93,30.14,3.0,ESE,11.5,-,N/A,,Overcast,110,2013-11-21 15:53:00
10:31 AM,69.8,66.2,88,30.12,10.0,SE,12.7,-,N/A,,Overcast,130,2013-11-21 16:31:00
10:53 AM,70.0,66.0,87,30.14,10.0,ESE,11.5,-,N/A,,Overcast,110,2013-11-21 16:53:00
11:21 AM,73.4,66.2,78,30.10,10.0,SE,12.7,-,N/A,,Overcast,130,2013-11-21 17:21:00
11:53 AM,72.0,66.9,84,30.12,10.0,SE,12.7,-,N/A,,Overcast,140,2013-11-21 17:53:00
12:49 PM,75.2,68.0,78,30.08,10.0,SSE,13.8,19.6,N/A,,Overcast,150,2013-11-21 18:49:00
12:53 PM,75.9,68.0,76,30.10,10.0,SE,13.8,-,N/A,,Overcast,140,2013-11-21 18:53:00
1:01 PM,75.2,68.0,78,30.07,10.0,SE,13.8,-,N/A,,Overcast,140,2013-11-21 19:01:00
1:31 PM,78.8,68.0,69,30.06,10.0,SE,16.1,-,N/A,,Overcast,140,2013-11-21 19:31:00
1:53 PM,77.0,68.0,74,30.08,10.0,SSE,16.1,-,N/A,,Overcast,150,2013-11-21 19:53:00
2:00 PM,75.2,69.8,83,30.06,10.0,SE,15.0,-,N/A,,Overcast,140,2013-11-21 20:00:00
2:53 PM,75.9,69.1,79,30.08,10.0,SSE,13.8,-,0.00,Rain,Light Rain,150,2013-11-21 20:53:00
3:07 PM,73.4,69.8,88,30.06,1.8,SE,9.2,-,0.07,Rain,Heavy Rain,140,2013-11-21 21:07:00
3:14 PM,73.4,71.6,94,30.06,3.0,SSE,12.7,-,0.11,Rain,Light Rain,150,2013-11-21 21:14:00
3:20 PM,73.4,71.6,94,30.05,5.0,SE,12.7,-,0.12,Rain,Rain,140,2013-11-21 21:20:00
3:53 PM,73.9,71.1,91,30.09,10.0,SE,6.9,-,0.13,,Overcast,140,2013-11-21 21:53:00
4:11 PM,73.4,71.6,94,30.06,10.0,SE,5.8,-,N/A,,Overcast,140,2013-11-21 22:11:00
4:53 PM,73.0,71.1,93,30.09,10.0,SE,8.1,-,0.00,,Mostly Cloudy,130,2013-11-21 22:53:00
5:10 PM,73.4,71.6,94,30.07,8.0,ESE,5.8,-,N/A,,Mostly Cloudy,120,2013-11-21 23:10:00
5:53 PM,72.0,70.0,93,30.11,9.0,ESE,5.8,-,N/A,,Overcast,110,2013-11-21 23:53:00
6:53 PM,72.0,70.0,93,30.12,8.0,SE,8.1,-,N/A,,Overcast,130,2013-11-22 00:53:00
7:00 PM,71.6,69.8,94,30.10,8.0,SE,6.9,-,N/A,,Overcast,130,2013-11-22 01:00:00
7:53 PM,72.0,70.0,93,30.13,7.0,SE,10.4,-,N/A,,Overcast,130,2013-11-22 01:53:00
8:53 PM,71.1,70.0,96,30.13,6.0,SE,9.2,-,N/A,,Overcast,130,2013-11-22 02:53:00
9:53 PM,71.1,70.0,96,30.13,6.0,ESE,9.2,-,N/A,,Overcast,120,2013-11-22 03:53:00
10:37 PM,71.6,69.8,94,30.13,5.0,ESE,4.6,-,N/A,,Overcast,110,2013-11-22 04:37:00
10:53 PM,71.1,69.1,93,30.16,5.0,ESE,3.5,-,N/A,,Overcast,110,2013-11-22 04:53:00
11:53 PM,71.1,69.1,93,30.17,4.0,ESE,6.9,-,N/A,,Overcast,120,2013-11-22 05:53:00